Regional Weather Roundup
Issued by NWS

Home | Current Version | Previous Version | Graphics & Text | Print | Product List | Glossary On
Versions: 1 2 3 4 5 6 7 8 9 10 11 12 13 14 15 16 17 18 19 20 21 22 23 24 25 26 27 28 29 30 31 32 33 34 35 36 37 38 39 40 41 42 43 44 45 46 47 48 49 50
000
ASUS43 KLMK 181610
RWRKY
KENTUCKY REGIONAL WEATHER ROUNDUP
NATIONAL WEATHER SERVICE LOUISVILLE KY
1100 AM EST SUN FEB 18 2018

NOTE "FAIR" INDICATES FEW OR NO CLOUDS BELOW 12,000 FEET
WITH NO SIGNIFICANT WEATHER AND/OR OBSTRUCTIONS TO VISIBILITY.

KYZ001>023-026-027-061>063-070>075-181700-
WESTERN AND SOUTH CENTRAL KENTUCKY

CITY           SKY/WX    TMP DP  RH WIND       PRES   REMARKS
PADUCAH        FAIR      43  37  79 SE10      30.29F
HENDERSON      FAIR      43  36  76 SE9       30.32S
OWENSBORO      FAIR      44  35  70 SE9       30.32F
HOPKINSVILLE   FAIR      42  42 100 E10       30.31F
BOWLING GREEN  FAIR      43  35  73 E5        30.35F
GLASGOW        FAIR      44  35  72 SE10      30.34F
$$

KYZ024-025-028>034-038-045-046-053-181700-
NORTH CENTRAL KENTUCKY

CITY           SKY/WX    TMP DP  RH WIND       PRES   REMARKS
LOUISVILLE/SDF PTSUNNY   41  32  70 SE3       30.36F
LOUISVILLE/LOU FAIR      41  32  70 VRB3      30.36F
FORT KNOX      FAIR      40  33  74 E6        30.34S
$$

KYZ035>037-039>044-047>052-055>060-089>105-181700-
NORTHEAST KENTUCKY

CITY           SKY/WX    TMP DP  RH WIND       PRES   REMARKS
LEXINGTON      FAIR      42  33  70 E7        30.36S
COVINGTON      PTSUNNY   38  32  79 SE12      30.37R WCI  30
FRANKFORT      FAIR      41  32  70 E5        30.35S
$$

KYZ054-064>069-076>088-106>120-181700-
SOUTHEAST KENTUCKY

CITY           SKY/WX    TMP DP  RH WIND       PRES   REMARKS
JACKSON        FAIR      42  31  64 VRB6      30.35F
LONDON         PTSUNNY   40  34  79 E7        30.35F
SOMERSET       PTSUNNY   43  34  70 E8        30.36F
MIDDLESBORO    FAIR      45  35  67 CALM      30.36S
MONTICELLO     NOT AVBL
$$





USA.gov is the U.S. government's official web portal to all federal, state and local government web resources and services.